TimeAST,TemperatureF,Dew PointF,Humidity,Sea Level PressureIn,VisibilityMPH,Wind Direction,Wind SpeedMPH,Gust SpeedMPH,PrecipitationIn,Events,Conditions,WindDirDegrees,DateUTC
12:00 AM,80.6,71.6,74,29.95,-9999.0,East,17.3,-,N/A,,Unknown,90,2013-02-19 04:00:00
1:00 AM,78.8,71.6,78,29.95,-9999.0,East,17.3,-,N/A,,Unknown,90,2013-02-19 05:00:00
2:00 AM,79,71,71,,,East,15.0,,,,Clear,90,2013-02-19 06:00:00
2:00 AM,78.8,71.6,78,29.95,-9999.0,East,15.0,-,N/A,,Unknown,90,2013-02-19 06:00:00
3:00 AM,78.8,71.6,78,29.92,-9999.0,East,15.0,-,N/A,,Unknown,80,2013-02-19 07:00:00
5:00 AM,79,71,70,,,East,17.3,,,,Clear,90,2013-02-19 09:00:00
5:00 AM,78.8,71.6,78,29.92,-9999.0,East,17.3,-,N/A,,Unknown,90,2013-02-19 09:00:00
6:00 AM,78.8,71.6,78,29.92,-9999.0,East,17.3,-,N/A,,Unknown,90,2013-02-19 10:00:00
8:00 AM,81,72,69,,,ESE,20.7,,,,Clear,110,2013-02-19 12:00:00
8:00 AM,82.4,73.4,74,29.98,6.2,East,20.7,-,N/A,,Scattered Clouds,100,2013-02-19 12:00:00
9:00 AM,82.4,73.4,74,29.98,6.2,East,21.9,-,N/A,,Scattered Clouds,100,2013-02-19 13:00:00
11:00 AM,86.0,71.6,62,30.01,6.2,East,24.2,-,N/A,,Scattered Clouds,100,2013-02-19 15:00:00
1:00 PM,86.0,71.6,62,29.98,6.2,East,20.7,-,N/A,,Scattered Clouds,90,2013-02-19 17:00:00
2:00 PM,85,72,57,,16,East,20.7,,,,Clear,100,2013-02-19 18:00:00
2:00 PM,86.0,71.6,62,29.95,-9999.0,East,20.7,-,N/A,,Unknown,100,2013-02-19 18:00:00
3:00 PM,84.2,71.6,66,29.92,-9999.0,East,20.7,-,N/A,,Unknown,90,2013-02-19 19:00:00
4:00 PM,84.2,71.6,66,29.89,-9999.0,East,20.7,-,N/A,,Unknown,90,2013-02-19 20:00:00
5:00 PM,84,71,58,,6,East,18.4,,,,Clear,90,2013-02-19 21:00:00
5:00 PM,84.2,71.6,66,29.92,-9999.0,East,18.4,-,N/A,,Unknown,90,2013-02-19 21:00:00
6:00 PM,80.6,71.6,74,29.92,-9999.0,East,17.3,-,N/A,,Unknown,80,2013-02-19 22:00:00
7:00 PM,80.6,69.8,70,29.92,-9999.0,East,16.1,-,N/A,,Unknown,80,2013-02-19 23:00:00
8:00 PM,80,70,65,,16,East,18.4,,,,Clear,90,2013-02-20 00:00:00
9:00 PM,80.6,69.8,70,29.95,-9999.0,East,18.4,-,N/A,,Unknown,80,2013-02-20 01:00:00
10:00 PM,80.6,69.8,70,29.95,-9999.0,East,16.1,-,N/A,,Unknown,80,2013-02-20 02:00:00
11:00 PM,78.8,69.8,74,29.95,-9999.0,East,17.3,-,N/A,,Unknown,80,2013-02-20 03:00:00